DW6451 Weather Reports


Display with metric or nautical units.
time (UTC)temp
F
wind
direction
speed
MPH
gust
MPH
rain 1hr
in
rain 24hr
in
rain mn
in
humidity
%
barometer
mb
20260905071602 65 35 0.0 4.0 0.01 0.53 0.01 100 1015.3
20260905070100 65 35 0.0 3.0 0.01 0.53 0.01 99 1015.2
20260905064559 65 35 0.0 4.0 0.00 0.52 0.00 99 1015.1
20260905063057 65 36 0.0 3.0 0.00 0.52 0.00 99 1015.2
20260905061605 65 36 0.0 3.0 0.00 0.52 0.00 99 1015.3
20260905060106 65 36 0.0 4.0 0.00 0.52 0.00 99 1015.4
20260905054604 65 10 0.0 2.0 0.00 0.53 0.00 99 1015.3
20260905053054 65 9 0.0 3.0 0.00 0.53 0.00 99 1015.1
20260905051607 65 51 0.0 2.0 0.00 0.53 0.00 99 1015.2
20260905050052 65 26 0.0 2.0 0.00 0.53 0.00 98 1015.2
20260905044552 65 26 0.0 2.0 0.00 0.54 0.53 98 1015.1
20260905043051 65 26 0.0 3.0 0.00 0.54 0.53 98 1015.1
20260905041550 65 26 0.0 1.0 0.00 0.54 0.53 98 1015.1
20260905040103 65 26 0.0 1.0 0.00 0.54 0.53 98 1015.3
20260905034550 65 26 0.0 2.0 0.00 0.56 0.53 98 1015.1
20260905033058 65 26 0.0 1.0 0.00 0.56 0.53 97 1015.2
20260905031550 65 26 0.0 2.0 0.00 0.56 0.53 97 1015.3
20260905030052 66 26 0.0 4.0 0.00 0.56 0.53 97 1015.1
20260905024602 66 85 0.0 2.0 0.00 0.56 0.53 97 1015.2
20260905023051 66 85 0.0 0.0 0.00 0.56 0.53 97 1015.2
20260905021545 66 85 0.0 1.0 0.00 0.56 0.53 97 1014.9
20260905020045 66 85 0.0 1.0 0.00 0.56 0.53 97 1015.0
20260905014544 66 85 0.0 1.0 0.00 0.56 0.53 97 1014.9
20260905013104 66 85 0.0 3.0 0.00 0.56 0.53 96 1014.8
20260905011541 66 86 1.0 3.0 0.00 0.56 0.53 96 1014.6
20260905010040 66 87 0.0 3.0 0.00 0.56 0.53 96 1014.5
20260905004539 66 75 0.0 3.0 0.00 0.56 0.53 95 1014.4
20260905003037 66 77 0.0 4.0 0.00 0.56 0.53 95 1014.2
20260905001535 66 17 0.0 3.0 0.00 0.56 0.53 95 1014.2
20260905000035 66 86 0.0 3.0 0.00 0.56 0.53 95 1014.1
20260904234540 67 86 1.0 5.0 0.00 0.56 0.53 94 1014.1
20260904233033 67 72 0.0 5.0 0.00 0.56 0.53 94 1014.0
20260904231532 67 300 0.0 4.0 0.00 0.56 0.53 93 1013.9
20260904230045 68 58 0.0 8.0 0.00 0.56 0.53 93 1013.9
20260904224533 68 10 2.0 6.0 0.00 0.56 0.53 93 1013.8
20260904223031 68 15 0.0 3.0 0.00 0.56 0.53 93 1013.7
20260904221529 68 15 1.0 4.0 0.00 0.56 0.53 92 1013.6
20260904220034 68 113 0.0 3.0 0.00 0.56 0.53 92 1013.7
20260904214528 68 360 1.0 5.0 0.00 0.56 0.53 92 1013.7
20260904213033 68 355 1.0 5.0 0.00 0.56 0.53 91 1013.6
20260904211525 68 74 0.0 5.0 0.00 0.56 0.53 92 1013.5
20260904210025 68 78 1.0 5.0 0.00 0.56 0.53 92 1013.4
20260904204524 68 30 0.0 5.0 0.00 0.56 0.53 92 1013.3
20260904203029 68 72 2.0 7.0 0.00 0.56 0.53 92 1013.3
20260904201536 68 342 0.0 6.0 0.00 0.56 0.53 92 1013.2
20260904200039 69 101 1.0 6.0 0.00 0.56 0.53 91 1013.2
20260904194521 70 347 2.0 8.0 0.00 0.56 0.53 91 1013.0
20260904193020 70 345 0.0 6.0 0.00 0.56 0.53 91 1012.8
20260904191518 70 42 0.0 4.0 0.00 0.56 0.53 91 1012.6
20260904190017 70 37 1.0 5.0 0.00 0.56 0.53 90 1012.6
20260904184515 70 115 1.0 4.0 0.00 0.56 0.53 92 1012.4
20260904183015 70 51 0.0 3.0 0.00 0.56 0.53 93 1012.5
20260904181511 70 29 1.0 4.0 0.00 0.56 0.53 94 1012.4
20260904180010 70 47 0.0 5.0 0.00 0.56 0.53 94 1012.4
20260904174508 69 12 2.0 5.0 0.00 0.56 0.53 95 1012.3
20260904173006 69 320 1.0 5.0 0.00 0.56 0.53 97 1012.3
20260904171504 68 346 0.0 5.0 0.00 0.56 0.53 98 1012.2
20260904170003 68 351 0.0 4.0 0.00 0.56 0.53 99 1012.2
20260904164502 68 5 1.0 4.0 0.00 0.56 0.53 99 1012.3
20260904163002 68 26 0.0 6.0 0.00 0.56 0.53 100 1012.3
20260904161501 68 40 0.0 3.0 0.00 0.56 0.53 100 1012.2
20260904160001 68 32 1.0 5.0 0.00 0.56 0.53 100 1012.0
20260904154602 67 19 0.0 3.0 0.00 0.56 0.53 100 1011.9
20260904153115 67 9 0.0 4.0 0.00 0.56 0.53 100 1011.9
20260904151559 67 331 0.0 2.0 0.00 0.56 0.53 100 1011.7
20260904150059 68 331 0.0 2.0 0.00 0.56 0.53 100 1011.5
20260904144611 68 331 0.0 1.0 0.00 0.56 0.53 100 1011.4
20260904143118 67 331 0.0 2.0 0.00 0.56 0.53 100 1011.4
20260904141555 67 328 0.0 0.0 0.00 0.56 0.53 100 1011.2
20260904140054 67 328 0.0 2.0 0.00 0.56 0.53 100 1011.1
20260904134557 67 328 0.0 2.0 0.00 0.56 0.53 100 1011.1
20260904133105 67 325 0.0 3.0 0.00 0.56 0.53 100 1010.9
20260904131553 66 325 0.0 2.0 0.00 0.56 0.53 100 1010.6
20260904130104 66 328 0.0 2.0 0.00 0.56 0.53 100 1010.5
20260904124551 66 331 0.0 3.0 0.00 0.56 0.53 100 1010.3
20260904123052 66 323 0.0 1.0 0.00 0.56 0.53 100 1010.0
20260904121548 66 323 0.0 1.0 0.00 0.56 0.53 100 1009.9
20260904120013 65 322 0.0 1.0 0.00 0.56 0.53 100 1009.8
20260904114528 65 323 0.0 0.0 0.00 0.56 0.53 100 1009.8
20260904113028 64 322 0.0 0.0 0.00 0.56 0.53 100 1009.6
20260904111526 64 323 0.0 0.0 0.00 0.56 0.53 100 1009.5
20260904110026 64 323 0.0 0.0 0.00 0.56 0.53 99 1009.4
20260904104525 64 322 0.0 0.0 0.00 0.56 0.53 99 1009.2
20260904103026 64 323 0.0 1.0 0.00 0.56 0.53 99 1009.0
20260904101524 64 323 0.0 0.0 0.01 0.56 0.53 99 1009.1
20260904100023 64 323 0.0 1.0 0.38 0.56 0.53 99 1009.4
20260904094522 64 322 0.0 2.0 0.51 0.56 0.53 99 1009.6
20260904093022 64 344 0.0 3.0 0.51 0.56 0.53 99 1009.6
20260904091521 65 130 0.0 5.0 0.51 0.56 0.52 99 1009.1
20260904090024 66 305 2.0 8.0 0.09 0.14 0.10 100 1012.2
20260904084522 65 148 0.0 2.0 0.01 0.06 0.02 99 1009.8
20260904083019 65 148 0.0 2.0 0.01 0.06 0.02 99 1009.2
20260904081516 65 148 0.0 1.0 0.00 0.05 0.01 99 1009.3
20260904080015 65 148 0.0 1.0 0.00 0.05 0.01 99 1009.7
20260904074514 64 148 0.0 1.0 0.00 0.05 0.01 98 1009.8
20260904073012 64 148 0.0 1.0 0.00 0.05 0.01 98 1010.0